Back to catalog

STARLINK-4495

AliveCommunicationsVLEO
NORAD 53552·PAYLOAD·🇺🇸 United States

Launched Aug 19, 2022 from Cape Canaveral Space Force Station

Loading…

Next Passes (next 24 hours)

TLE

FreshSource: CelesTrak SupGP

Epoch: Sep 14, 2026, 20:31 UTC

1 53552C 22101AB  26257.85534722 -.00008472  00000+0 -53133-3 0  2571
2 53552  53.1592 294.2964 0001305  84.8337 315.0537 15.08835330    16

Track STARLINK-4495 in real time with AllMySat

Download on the App Store